Weather History for Jaffrey, NH

Change the Weather History Date:

Saturday, July 27, 2013

  Actual Average Record
Temperature  
Mean Temperature 66 °F -  
Max Temperature 80 °F 76 °F 90 °F (2005)
Min Temperature 54 °F 55 °F 45 °F (2001)
Cooling Degree Days 2    
Growing Degree Days 16 (Base 50)    
Moisture  
Dew Point 57 °F    
Average Humidity 71    
Maximum Humidity 97    
Minimum Humidity 45    
Precipitation  
Precipitation 0.00 in - - ()
Sea Level Pressure  
Sea Level Pressure 30.06 in    
Wind  
Wind Speed 3 mph (South)    
Max Wind Speed 10 mph    
Max Gust Speed -    
Visibility 10 miles    
Events      
Averages and records for this station are not official NWS values.
T = Trace of Precipitation, MM = Missing Value Source: NWS Daily Summary

Daily Weather History Graph

Daily Weather History Graph

Search for Another Location

Airport:

Trip Planner

Search our weather history database for the weather conditions in past years. The results will help you decide how hot, cold, wet, or windy it might be!

Date:

Astronomy

Jul. 27, 2013 Rise Set
Actual Time 5:34 AM EDT 8:13 PM EDT
Civil Twilight 5:01 AM EDT 8:46 PM EDT
Nautical Twilight 4:20 AM EDT 9:27 PM EDT
Astronomical Twilight 3:34 AM EDT 10:13 PM EDT
Moon 10:49 PM EDT (7/27) 11:21 AM EDT (7/27)
Length of Visible Light 15h 44m
Length of Day
14h 39m
Waning Gibbous, 71% of the Moon is Illuminated
Jul 27
Waning Gibbous
Jul 29
Last Quarter
Aug 6
New
Aug 14
First Quarter
Aug 20
Full

Hourly Weather History & Observations

Time (EDT) Temp. Dew Point Humidity Pressure Visibility Wind Dir Wind Speed Gust Speed Precip Events Conditions
12:52 AM 60.1 °F 57.0 °F 90% 30.06 in 10.0 mi Calm Calm - N/A   Clear
1:52 AM 57.9 °F 55.9 °F 93% 30.06 in 10.0 mi Calm Calm - N/A   Clear
2:52 AM 57.9 °F 55.9 °F 93% 30.06 in 10.0 mi SSE 4.6 mph - N/A   Clear
3:52 AM 57.9 °F 55.0 °F 90% 30.06 in 10.0 mi South 5.8 mph - N/A   Clear
4:52 AM 57.0 °F 55.0 °F 93% 30.07 in 10.0 mi Calm Calm - N/A   Clear
5:52 AM 54.0 °F 53.1 °F 97% 30.08 in 10.0 mi South 3.5 mph - N/A   Clear
6:52 AM 57.0 °F 55.0 °F 93% 30.08 in 10.0 mi South 5.8 mph - N/A   Clear
7:52 AM 62.1 °F 55.9 °F 80% 30.09 in 10.0 mi South 4.6 mph - N/A   Clear
8:52 AM 66.9 °F 55.9 °F 68% 30.09 in 10.0 mi Calm Calm - N/A   Clear
9:52 AM 70.0 °F 57.9 °F 65% 30.09 in 10.0 mi South 6.9 mph - N/A   Clear
10:52 AM 73.9 °F 57.0 °F 55% 30.09 in 10.0 mi Variable 3.5 mph - N/A   Clear
11:52 AM 75.9 °F 55.0 °F 48% 30.09 in 10.0 mi Variable 3.5 mph - N/A   Partly Cloudy
12:52 PM 77.0 °F 55.9 °F 48% 30.08 in 10.0 mi Calm Calm - N/A   Scattered Clouds
1:52 PM 78.1 °F 57.0 °F 48% 30.07 in 10.0 mi SSW 10.4 mph - N/A   Mostly Cloudy
2:52 PM 79.0 °F 55.9 °F 45% 30.06 in 10.0 mi SSW 8.1 mph - N/A   Partly Cloudy
3:52 PM 79.0 °F 57.9 °F 48% 30.05 in 10.0 mi SSW 10.4 mph - N/A   Partly Cloudy
4:52 PM 79.0 °F 57.0 °F 47% 30.04 in 10.0 mi SSW 9.2 mph - N/A   Partly Cloudy
5:52 PM 77.0 °F 57.9 °F 52% 30.04 in 10.0 mi South 5.8 mph - N/A   Clear
6:52 PM 75.9 °F 59.0 °F 56% 30.03 in 10.0 mi Calm Calm - N/A   Clear
7:52 PM 72.0 °F 61.0 °F 68% 30.04 in 10.0 mi Calm Calm - N/A   Clear
8:52 PM 68.0 °F 61.0 °F 78% 30.04 in 10.0 mi Calm Calm - N/A   Clear
9:52 PM 64.9 °F 61.0 °F 87% 30.05 in 10.0 mi Calm Calm - N/A   Clear
10:52 PM 66.9 °F 62.1 °F 84% 30.06 in 10.0 mi Calm Calm - N/A   Clear
11:52 PM 66.0 °F 62.1 °F 87% 30.05 in 10.0 mi SW 3.5 mph - N/A   Clear